Location: Grand Moustoir
(47.8355°N, 3.3120°W)
Time: 21:16:16
(UTC+00:00)

Lacrosse 5 rocket - Pass Details

Date: 20 January 2020
Orbit: 465 x 632 km, 57.0° (Epoch: 16 February)

Event Time Altitude Azimuth Distance (km) Brightness Sun altitude
Exits shadow 06:35:58 16° 313° (NW) 1,632 3.2 -12.9°
Maximum altitude 06:38:30 25° 358° (N) 1,250 2.9 -12.5°
Drops below altitude 10° 06:42:15 10° 55° (NE) 1,957 4.7 -11.9°
Sets 06:44:49 0° 68° (ENE) 2,833 5.8 -11.5°
